Tracking 21970 objects as of 25-Nov-2020
HD Live streaming from Space Station
objects crossing your sky now

ARIANE 5 R/B

Track ARIANE 5 R/B now!


NORAD ID: 41795
Int'l Code: 2016-060C
Perigee: 214.1 km
Apogee: 34,085.8 km
Inclination: 5.6 °
Period: 598.3 minutes
Semi major axis: 23520 km
RCS: Unknown
Launch date: October 5, 2016
Source: France (FR)
Launch site: FRENCH GUIANA (FRGUI)

Note: This is a ROCKET BODY
aabbcc
Your satellite tracking list
Your tracking list is empty




NASA's NSSDC Master Catalog

Two Line Element Set (TLE):
1 41795U 16060C   20329.87028456 +.00014077 +00000-0 +13777-2 0  9991
2 41795 005.6366 218.4018 7200312 026.7247 356.9028 02.40668678035515
Source of the keplerian elements: AFSPC